Вернуться в каталог

STARLINK-35815

АктивенСвязьVLEO
NORAD 66577·PAYLOAD·🇺🇸 United States

Запущен Nov 21, 2025 с Cape Canaveral Space Force Station

Loading…

Ближайшие Пролёты (ближайшие 24 часа)

TLE

СвежийSource: CelesTrak SupGP

Эпоха: Sep 14, 2026, 23:17 UTC

1 66577C 25268W   26257.97062500 -.00016307  00000+0 -59057-3 0  2579
2 66577  43.0041 358.1206 0001821 267.9038 234.9398 15.27590562    18

Отслеживайте STARLINK-35815 в реальном времени с AllMySat

Download on the App Store